This is the latest recevied weather packets stored in our database for station/object KU9TRY. If no packets are shown the sender has not sent any weather packets the latest 10 day(s).
| Time | Temp. | Humidity | Pressure | Rain* | Wind** | Luminosity | Snow |
|---|---|---|---|---|---|---|---|
| 1777857622 | 11.11° C | 68% | 1015.8 hPa | 0 mm | - | 0 W/m² | - |
| 1777857318 | 11.11° C | 66% | 1015.9 hPa | 0 mm | - | 0 W/m² | - |
| 1777857014 | 11.67° C | 63% | 1016 hPa | 0 mm | - | 0 W/m² | - |
| 1777856710 | 12.22° C | 59% | 1015.8 hPa | 0 mm | - | 0 W/m² | - |
| 1777856406 | 12.22° C | 63% | 1016.1 hPa | 0 mm | - | 0 W/m² | - |
| 1777856103 | 12.78° C | 58% | 1016 hPa | 0 mm | - | 0 W/m² | - |
| 1777855800 | 12.78° C | 57% | 1016 hPa | 0 mm | - | 0 W/m² | - |
| 1777855498 | 13.33° C | 55% | 1016.1 hPa | 0 mm | - | 0 W/m² | - |
| 1777855195 | 13.89° C | 58% | 1015.6 hPa | 0 mm | - | 1 W/m² | - |
| 1777854891 | 13.89° C | 57% | 1015.8 hPa | 0 mm | - | 2 W/m² | - |
| 1777854588 | 14.44° C | 54% | 1016.1 hPa | 0 mm | - | 3 W/m² | - |
| 1777854284 | 15° C | 55% | 1015.9 hPa | 0 mm | - | 5 W/m² | - |
| 1777853982 | 15° C | 49% | 1015.8 hPa | 0 mm | - | 7 W/m² | - |
| 1777853679 | 15° C | 47% | 1016.1 hPa | 0 mm | - | 9 W/m² | - |
| 1777853376 | 15° C | 49% | 1015.9 hPa | 0 mm | - | 11 W/m² | - |
| 1777853073 | 15° C | 45% | 1016.2 hPa | 0 mm | - | 13 W/m² | - |
| 1777852770 | 15.56° C | 48% | 1016.3 hPa | 0 mm | - | 15 W/m² | - |
| 1777852468 | 15.56° C | 45% | 1016.4 hPa | 0 mm | - | 17 W/m² | - |
| 1777852165 | 15.56° C | 45% | 1016.3 hPa | 0 mm | - | 19 W/m² | - |
| 1777851863 | 15.56° C | 47% | 1016.6 hPa | 0 mm | - | 20 W/m² | - |
| 1777851560 | 15.56° C | 48% | 1016.5 hPa | 0 mm | - | 22 W/m² | - |
| 1777851257 | 15.56° C | 45% | 1016.5 hPa | 0 mm | - | 23 W/m² | - |
| 1777850953 | 15.56° C | 45% | 1016.5 hPa | 0 mm | - | 24 W/m² | - |
| 1777850651 | 15.56° C | 45% | 1016.8 hPa | 0 mm | - | 25 W/m² | - |
| 1777850348 | 15.56° C | 47% | 1016.5 hPa | 0 mm | - | 26 W/m² | - |
* Rain latest hour (hover to see other rain measurements)
** Current wind speed in m/s (hover to see current wind gust speed)